Weather Roundup
Issued by NWS Chicago, IL

Home | Current Version | Previous Version | Text Only | Print | Product List | Glossary Off
Versions: 1 2 3 4 5 6 7 8 9 10 11 12 13 14 15 16 17 18 19 20 21 22 23 24 25 26 27 28 29 30 31 32 33 34 35 36 37 38 39 40 41 42 43 44 45 46 47 48 49 50

128
NZUS59 KLOT 111308
HRRLOT

CHICAGO AREA WEATHER ROUNDUP
NATIONAL WEATHER SERVICE CHICAGO/ROMEOVILLE IL
700 AM CST THU FEB 11 2016

NOTE: "FAIR" INDICATES FEW OR NO CLOUDS BELOW 12,000 FEET WITH NO
SIGNIFICANT WEATHER AND/OR OBSTRUCTIONS TO VISIBILITY.

* THESE STATIONS ARE NOT UNDER NWS QUALITY CONTROL. THEY ALSO MAY NOT
  REPORT WEATHER SUCH AS PRECIPITATION OR FOG.

ILZ005-006-012>014-019>023-111400-
NORTHEAST ILLINOIS

CITY           SKY/WX    TMP DP  RH WIND       PRES   REMARKS
OHARE          PTCLDY     7  -2  66 W8        30.27R WCI  -6
MIDWAY         PTCLDY     9  -3  58 NW9       30.28R WCI  -4
AURORA         CLEAR      5  -1  76 NW7       30.29R WCI  -7
LANSING*       PTCLDY    10   0  65 NW7       30.28R WCI  -2
JOLIET*        PTCLDY    10   2  72 CALM      30.31R
WAUKEGAN       CLEAR      4  -4  69 NW7       30.26R WCI  -8
DUPAGE AIRPORT CLEAR      5  -4  66 NW6       30.27R WCI  -6
WHEELING       CLEAR      6  -3  66 NW7       30.29R WCI  -6
KANKAKEE*      CLEAR     10   2  69 NW6       30.29R WCI   1
MORRIS*        PTCLDY     7   1  76 N6        30.26R WCI  -3
LEWIS AIRPORT* PTCLDY     7  -1  68 N6        30.29R WCI  -3
$$

WIZ051-052-058>065-066-070>072-111400-
SOUTHEAST WISCONSIN

CITY           SKY/WX    TMP DP  RH WIND       PRES   REMARKS
MILWAUKEE      CLEAR      5  -4  66 NW8       30.27R WCI  -8
KENOSHA*       CLEAR      5  -4  66 NW7       30.26R WCI  -7
RACINE*        CLEAR      4  -5  66 NW9       30.28R WCI -10
BURLINGTON     PTCLDY     1  -5  74 NW7       30.27R WCI -11
WAUKESHA       CLEAR      0  -6  78 W7        30.26R WCI -13
WEST BEND      CLEAR      1  -6  71 CALM      30.25R
$$

INZ001>003-010>013-019-020-111400-
NORTHWEST INDIANA

CITY           SKY/WX    TMP DP  RH WIND       PRES   REMARKS
GARY*          PTCLDY    12   1  62 W12       30.28R WCI  -2
MICHIGAN CITY* NOT AVBL
RENSSELAER*    NOT AVBL
VALPARAISO     CLOUDY    13   4  67 W10       30.24R WCI   0
$$

LMZ740>746-111400-
SOUTHERN LAKE MICHIGAN

STATION/POSITION TIME  SKY/WX   TEMP WIND        PRES    VSBY
                                AIR  DIR/SP/G
                 (UTC)          (F)  (DEG/KT/KT) (MB)    (MI)
HARRISON CRIB    1200            13  310/ 14/ 16   N/A
BURNHAM HARBOR   1300            11  300/  4/  8   N/A
CALUMET HARBOR   1200            10  280/  6/ 10 1023.9R
BURNS HARBOR     1202            19  330/ 16/ 22 1024.0R
MICHIGAN CITY    1200            18  320/ 21/ 23   N/A
$$

ABBREVIATIONS USED IN REMARKS
   TC - TEMPERATURE IN CELSIUS
  WCI - WIND CHILL INDEX
   HX - HEAT INDEX
  VSB - VISIBILITY
$$




USA.gov is the U.S. government's official web portal to all federal, state and local government web resources and services.